Regional Weather Roundup
Issued by NWS

Home | Current Version | Previous Version | Text Only | Print | Product List | Glossary Off
Versions: 1 2 3 4 5 6 7 8 9 10 11 12 13 14 15 16 17 18 19 20 21 22 23 24 25 26 27 28 29 30 31 32 33 34 35 36 37 38 39 40 41 42 43 44 45 46 47 48 49 50

000
ASUS43 KBIS 301210
RWRND

NORTH DAKOTA REGIONAL WEATHER ROUNDUP
NATIONAL WEATHER SERVICE BISMARCK ND
700 AM CDT WED JUL 30 2014

NOTE: "FAIR" INDICATES FEW OR NO CLOUDS BELOW 12,000 FEET WITH NO
SIGNIFICANT WEATHER AND/OR OBSTRUCTIONS TO VISIBILITY.


NDZ001>003-009>011-017-301300-
NORTHWEST NORTH DAKOTA

CITY           SKY/WX    TMP DP  RH WIND       PRES   REMARKS
WILLISTON      CLEAR     54  52  93 NE6       30.18S
6HR MIN TEMP:  54; 6HR MAX TEMP:  62;

MINOT          CLEAR     57  54  89 CALM      30.16S
MINOT AFB      CLEAR     56  56 100 NW2       30.15F
$$

NDZ018>021-031>035-040>046-301300-
SOUTHWEST NORTH DAKOTA

CITY           SKY/WX    TMP DP  RH WIND       PRES   REMARKS
BISMARCK       CLEAR     54  25  32 CALM      30.17S
6HR MIN TEMP:  53; 6HR MAX TEMP:  63;

DICKINSON      FOG       49  47  93 W5        30.17S VSB 1/4
GARRISON         N/A     54  54 100 N3        30.17S
6HR MIN TEMP:  54; 6HR MAX TEMP:  60;

HETTINGER ARPT CLEAR     47  45  93 CALM      30.17S FOG
$$

NDZ004>008-012>016-024-026-027-054-301300-
NORTHEAST NORTH DAKOTA

CITY           SKY/WX    TMP DP  RH WIND       PRES   REMARKS
GRAND FORKS    PTCLDY    55  53  93 W3        30.12S
GRND FRKS AFB  CLEAR     53  53 100 W1        30.13S
DEVILS LAKE    CLEAR     54  50  87 N3        30.14S
$$

NDZ022-023-025-028>030-036>039-047>053-301300-
SOUTHEAST NORTH DAKOTA

CITY           SKY/WX    TMP DP  RH WIND       PRES   REMARKS
FARGO          CLEAR     56  51  84 CALM      30.13S
6HR MIN TEMP:  53; 6HR MAX TEMP:  59;

JAMESTOWN      CLEAR     52  51  97 W3        30.16S FOG
$$



USA.gov is the U.S. government's official web portal to all federal, state and local government web resources and services.